Time,TemperatureF,DewpointF,PressureIn,WindDirection,WindDirectionDegrees,WindSpeedMPH,WindSpeedGustMPH,Humidity,HourlyPrecipIn,Conditions,Clouds,dailyrainin,SoftwareType,DateUTC
2013-09-10 00:00:00,59.1,53.6,30.18,SSW,201,2.0,3.0,82,0.00,,CLR,0.00,VWS V14.01,2013-09-10 04:00:00,
2013-09-10 00:01:00,59.1,53.6,30.18,SE,128,0.0,3.0,82,0.00,,CLR,0.00,VWS V14.01,2013-09-10 04:01:00,
2013-09-10 00:06:00,58.9,53.8,30.18,SSW,205,0.0,3.0,83,0.00,,CLR,0.00,VWS V14.01,2013-09-10 04:06:00,
2013-09-10 00:10:00,58.9,53.8,30.18,WSW,249,0.0,4.0,83,0.00,,OVC038,0.00,VWS V14.01,2013-09-10 04:10:00,
2013-09-10 00:11:00,58.9,53.8,30.18,South,184,0.0,2.0,83,0.00,,CLR,0.00,VWS V14.01,2013-09-10 04:11:00,
2013-09-10 00:16:00,58.9,53.8,30.18,SSE,158,1.0,2.0,83,0.00,,CLR,0.00,VWS V14.01,2013-09-10 04:16:00,
2013-09-10 00:20:00,58.8,53.7,30.18,SE,134,0.0,2.0,83,0.00,,OVC038,0.00,VWS V14.01,2013-09-10 04:20:00,
2013-09-10 00:21:00,58.8,54.0,30.18,SSE,149,0.0,1.0,84,0.00,,CLR,0.00,VWS V14.01,2013-09-10 04:21:00,
2013-09-10 00:26:00,58.8,54.0,30.18,SSE,162,0.0,1.0,84,0.00,,CLR,0.00,VWS V14.01,2013-09-10 04:26:00,
2013-09-10 00:30:00,58.8,54.0,30.19,SSW,208,0.0,1.0,84,0.00,,OVC038,0.00,VWS V14.01,2013-09-10 04:30:00,
2013-09-10 00:31:00,58.7,53.9,30.19,SSW,201,0.0,0.0,84,0.00,,CLR,0.00,VWS V14.01,2013-09-10 04:31:00,
2013-09-10 00:36:00,58.6,54.1,30.18,SSW,203,0.0,1.0,85,0.00,,CLR,0.00,VWS V14.01,2013-09-10 04:36:00,
2013-09-10 00:40:00,58.6,54.1,30.18,SSW,204,0.0,1.0,85,0.00,,OVC038,0.00,VWS V14.01,2013-09-10 04:40:00,
2013-09-10 00:41:00,58.6,54.1,30.19,SSW,204,0.0,0.0,85,0.00,,CLR,0.00,VWS V14.01,2013-09-10 04:41:00,
2013-09-10 00:46:00,58.5,54.3,30.19,SSW,204,0.0,0.0,86,0.00,,CLR,0.00,VWS V14.01,2013-09-10 04:46:00,
2013-09-10 00:50:00,58.5,54.3,30.19,SW,218,0.0,2.0,86,0.00,,OVC038,0.00,VWS V14.01,2013-09-10 04:50:00,
2013-09-10 00:51:00,58.5,54.3,30.19,SW,235,0.0,2.0,86,0.00,,CLR,0.00,VWS V14.01,2013-09-10 04:51:00,
2013-09-10 00:56:00,58.6,54.4,30.19,SSE,160,0.0,2.0,86,0.00,,CLR,0.00,VWS V14.01,2013-09-10 04:56:00,
2013-09-10 01:00:00,58.7,54.5,30.19,SSE,160,0.0,2.0,86,0.00,,OVC038,0.00,VWS V14.01,2013-09-10 05:00:00,
2013-09-10 01:01:00,58.7,54.5,30.19,South,172,0.0,1.0,86,0.00,,CLR,0.00,VWS V14.01,2013-09-10 05:01:00,
2013-09-10 01:06:00,58.7,54.2,30.19,South,174,0.0,1.0,85,0.00,,CLR,0.00,VWS V14.01,2013-09-10 05:06:00,
2013-09-10 01:10:00,58.7,54.5,30.19,SW,214,0.0,2.0,86,0.00,,OVC038,0.00,VWS V14.01,2013-09-10 05:10:00,
2013-09-10 01:11:00,58.8,54.6,30.19,SW,214,0.0,0.0,86,0.00,,CLR,0.00,VWS V14.01,2013-09-10 05:11:00,
2013-09-10 01:16:00,58.9,54.4,30.19,WSW,252,0.0,1.0,85,0.00,,CLR,0.00,VWS V14.01,2013-09-10 05:16:00,
2013-09-10 01:20:00,58.9,54.4,30.19,SW,228,0.0,2.0,85,0.00,,OVC038,0.00,VWS V14.01,2013-09-10 05:20:00,
2013-09-10 01:21:00,59.0,54.5,30.19,SW,227,0.0,1.0,85,0.00,,CLR,0.00,VWS V14.01,2013-09-10 05:21:00,
2013-09-10 01:26:00,59.1,54.6,30.19,WSW,246,0.0,2.0,85,0.00,,CLR,0.00,VWS V14.01,2013-09-10 05:26:00,
2013-09-10 01:30:00,59.1,54.3,30.19,SW,233,0.0,2.0,84,0.00,,OVC038,0.00,VWS V14.01,2013-09-10 05:30:00,
2013-09-10 01:31:00,59.1,54.3,30.19,WSW,239,0.0,4.0,84,0.00,,CLR,0.00,VWS V14.01,2013-09-10 05:31:00,
2013-09-10 01:36:00,59.2,54.4,30.18,SW,221,0.0,4.0,84,0.00,,CLR,0.00,VWS V14.01,2013-09-10 05:36:00,
2013-09-10 01:40:00,59.2,54.4,30.18,South,173,0.0,4.0,84,0.00,,OVC038,0.00,VWS V14.01,2013-09-10 05:40:00,
2013-09-10 01:41:00,59.1,54.3,30.18,SSW,212,0.0,1.0,84,0.00,,CLR,0.00,VWS V14.01,2013-09-10 05:41:00,
2013-09-10 01:46:00,59.1,54.3,30.18,SSW,205,0.0,2.0,84,0.00,,CLR,0.00,VWS V14.01,2013-09-10 05:46:00,
2013-09-10 01:50:00,59.2,54.4,30.18,SSE,160,0.0,2.0,84,0.00,,OVC038,0.00,VWS V14.01,2013-09-10 05:50:00,
2013-09-10 01:51:00,59.2,54.4,30.18,SW,231,1.0,2.0,84,0.00,,CLR,0.00,VWS V14.01,2013-09-10 05:51:00,
2013-09-10 01:56:00,59.3,54.2,30.18,SSW,207,1.0,2.0,83,0.00,,CLR,0.00,VWS V14.01,2013-09-10 05:56:00,
2013-09-10 02:00:00,59.4,54.2,30.18,SE,145,0.0,2.0,83,0.00,,OVC038,0.00,VWS V14.01,2013-09-10 06:00:00,
2013-09-10 02:01:00,59.4,54.2,30.18,South,184,1.0,2.0,83,0.00,,CLR,0.00,VWS V14.01,2013-09-10 06:01:00,
2013-09-10 02:06:00,59.5,54.3,30.17,SSW,195,0.0,4.0,83,0.00,,CLR,0.00,VWS V14.01,2013-09-10 06:06:00,
2013-09-10 02:10:00,59.7,54.5,30.17,WSW,241,0.0,4.0,83,0.00,,-RA,0.00,VWS V14.01,2013-09-10 06:10:00,
2013-09-10 02:11:00,59.7,54.5,30.17,SSW,193,4.0,4.0,83,0.00,,CLR,0.00,VWS V14.01,2013-09-10 06:11:00,
2013-09-10 02:16:00,60.0,54.8,30.17,SW,214,0.0,5.0,83,0.00,,CLR,0.00,VWS V14.01,2013-09-10 06:16:00,
2013-09-10 02:20:00,60.2,54.7,30.17,South,170,1.0,5.0,82,0.00,,OVC038,0.00,VWS V14.01,2013-09-10 06:20:00,
2013-09-10 02:21:00,60.2,54.7,30.17,SSW,211,0.0,2.0,82,0.00,,CLR,0.00,VWS V14.01,2013-09-10 06:21:00,
2013-09-10 02:26:00,60.4,55.2,30.17,West,269,2.0,3.0,83,0.00,,CLR,0.00,VWS V14.01,2013-09-10 06:26:00,
2013-09-10 02:30:00,60.6,55.1,30.18,South,172,0.0,5.0,82,0.00,,OVC038,0.00,VWS V14.01,2013-09-10 06:30:00,
2013-09-10 02:31:00,60.7,55.2,30.18,South,186,1.0,3.0,82,0.00,,CLR,0.00,VWS V14.01,2013-09-10 06:31:00,
2013-09-10 02:36:00,61.0,55.1,30.18,SE,136,2.0,4.0,81,0.00,,CLR,0.00,VWS V14.01,2013-09-10 06:36:00,
2013-09-10 02:40:00,61.1,55.2,30.18,SW,235,0.0,4.0,81,0.00,,OVC038,0.00,VWS V14.01,2013-09-10 06:40:00,
2013-09-10 02:41:00,61.1,55.2,30.19,WSW,239,2.0,2.0,81,0.00,,CLR,0.00,VWS V14.01,2013-09-10 06:41:00,
2013-09-10 02:46:00,61.3,55.1,30.19,WSW,238,0.0,2.0,80,0.00,,CLR,0.00,VWS V14.01,2013-09-10 06:46:00,
2013-09-10 02:50:00,61.2,55.0,30.18,SSW,211,0.0,2.0,80,0.00,,OVC038,0.00,VWS V14.01,2013-09-10 06:50:00,
2013-09-10 02:51:00,61.2,55.3,30.18,South,191,1.0,2.0,81,0.00,,CLR,0.00,VWS V14.01,2013-09-10 06:51:00,
2013-09-10 02:56:00,61.0,55.1,30.18,SSW,205,0.0,2.0,81,0.00,,CLR,0.00,VWS V14.01,2013-09-10 06:56:00,
2013-09-10 03:00:00,60.8,54.9,30.18,SSW,201,0.0,2.0,81,0.00,,OVC038,0.00,VWS V14.01,2013-09-10 07:00:00,
2013-09-10 03:01:00,60.7,54.8,30.18,SSW,201,0.0,0.0,81,0.00,,CLR,0.00,VWS V14.01,2013-09-10 07:01:00,
2013-09-10 03:06:00,60.4,55.2,30.18,SSE,158,0.0,3.0,83,0.00,,CLR,0.00,VWS V14.01,2013-09-10 07:06:00,
2013-09-10 03:10:00,60.3,55.1,30.18,SSW,205,0.0,3.0,83,0.00,,OVC038,0.00,VWS V14.01,2013-09-10 07:10:00,
2013-09-10 03:11:00,60.3,55.1,30.18,SSW,201,0.0,1.0,83,0.00,,CLR,0.00,VWS V14.01,2013-09-10 07:11:00,
2013-09-10 03:16:00,60.2,55.3,30.18,SW,214,0.0,1.0,84,0.00,,CLR,0.00,VWS V14.01,2013-09-10 07:16:00,
2013-09-10 03:20:00,60.1,55.3,30.18,SSW,197,0.0,1.0,84,0.00,,OVC038,0.00,VWS V14.01,2013-09-10 07:20:00,
2013-09-10 03:21:00,60.1,55.3,30.18,SSW,197,0.0,0.0,84,0.00,,CLR,0.00,VWS V14.01,2013-09-10 07:21:00,
2013-09-10 03:26:00,59.9,55.4,30.17,SW,222,0.0,1.0,85,0.00,,CLR,0.00,VWS V14.01,2013-09-10 07:26:00,
2013-09-10 03:30:00,59.9,55.4,30.17,South,183,1.0,3.0,85,0.00,,OVC038,0.00,VWS V14.01,2013-09-10 07:30:00,
2013-09-10 03:31:00,59.9,55.4,30.17,SE,126,0.0,1.0,85,0.00,,CLR,0.00,VWS V14.01,2013-09-10 07:31:00,
2013-09-10 03:36:00,60.0,55.8,30.17,SE,131,1.0,2.0,86,0.00,,CLR,0.00,VWS V14.01,2013-09-10 07:36:00,
2013-09-10 03:40:00,60.1,55.9,30.17,SSW,193,0.0,2.0,86,0.00,,OVC038,0.00,VWS V14.01,2013-09-10 07:40:00,
2013-09-10 03:41:00,60.3,56.1,30.17,South,179,2.0,3.0,86,0.00,,CLR,0.00,VWS V14.01,2013-09-10 07:41:00,
2013-09-10 03:46:00,60.4,56.2,30.17,WSW,245,0.0,3.0,86,0.00,,CLR,0.00,VWS V14.01,2013-09-10 07:46:00,
2013-09-10 03:50:00,60.5,56.3,30.17,SSE,159,0.0,3.0,86,0.00,,OVC038,0.00,VWS V14.01,2013-09-10 07:50:00,
2013-09-10 03:51:00,60.5,56.3,30.16,SE,139,0.0,2.0,86,0.00,,CLR,0.00,VWS V14.01,2013-09-10 07:51:00,
2013-09-10 03:56:00,60.8,56.6,30.17,West,273,1.0,5.0,86,0.00,,CLR,0.00,VWS V14.01,2013-09-10 07:56:00,
2013-09-10 04:00:00,61.0,56.5,30.17,SW,226,0.0,5.0,85,0.00,,OVC038,0.00,VWS V14.01,2013-09-10 08:00:00,
2013-09-10 04:01:00,61.1,56.6,30.17,SW,227,0.0,1.0,85,0.00,,SCT046,0.00,VWS V14.01,2013-09-10 08:01:00,
2013-09-10 04:06:00,61.3,57.1,30.17,SSW,203,3.0,4.0,86,0.00,,SCT046,0.00,VWS V14.01,2013-09-10 08:06:00,
2013-09-10 04:10:00,61.6,57.0,30.16,SSW,201,2.0,4.0,85,0.00,,OVC038,0.00,VWS V14.01,2013-09-10 08:10:00,
2013-09-10 04:11:00,61.6,57.0,30.16,SSE,166,0.0,2.0,85,0.00,,SCT046,0.00,VWS V14.01,2013-09-10 08:11:00,
2013-09-10 04:16:00,61.8,57.2,30.17,SE,135,0.0,2.0,85,0.00,,SCT046,0.00,VWS V14.01,2013-09-10 08:16:00,
2013-09-10 04:20:00,62.1,57.2,30.16,South,176,2.0,4.0,84,0.00,,OVC038,0.00,VWS V14.01,2013-09-10 08:20:00,
2013-09-10 04:21:00,62.2,57.3,30.16,SSE,166,4.0,5.0,84,0.00,,SCT046,0.00,VWS V14.01,2013-09-10 08:21:00,
2013-09-10 04:26:00,62.5,57.3,30.17,SSW,209,0.0,5.0,83,0.00,,SCT046,0.00,VWS V14.01,2013-09-10 08:26:00,
2013-09-10 04:30:00,62.6,57.4,30.16,SW,217,0.0,5.0,83,0.00,,OVC038,0.00,VWS V14.01,2013-09-10 08:30:00,
2013-09-10 04:31:00,62.6,57.4,30.17,SSE,163,0.0,1.0,83,0.00,,SCT046,0.00,VWS V14.01,2013-09-10 08:31:00,
2013-09-10 04:36:00,62.9,57.7,30.17,SSW,200,2.0,5.0,83,0.00,,SCT046,0.00,VWS V14.01,2013-09-10 08:36:00,
2013-09-10 04:40:00,63.0,57.4,30.17,SW,215,2.0,5.0,82,0.00,,OVC038,0.00,VWS V14.01,2013-09-10 08:40:00,
2013-09-10 04:41:00,63.0,57.4,30.17,South,187,0.0,4.0,82,0.00,,SCT046,0.00,VWS V14.01,2013-09-10 08:41:00,
2013-09-10 04:46:00,63.2,57.6,30.17,SSW,208,0.0,4.0,82,0.00,,SCT046,0.00,VWS V14.01,2013-09-10 08:46:00,
2013-09-10 04:50:00,63.2,57.6,30.17,SSW,193,2.0,4.0,82,0.00,,OVC038,0.00,VWS V14.01,2013-09-10 08:50:00,
2013-09-10 04:51:00,63.2,57.6,30.17,SSW,198,1.0,2.0,82,0.00,,SCT046,0.00,VWS V14.01,2013-09-10 08:51:00,
2013-09-10 04:56:00,63.3,57.7,30.17,South,184,1.0,3.0,82,0.00,,SCT046,0.00,VWS V14.01,2013-09-10 08:56:00,
2013-09-10 05:00:00,63.4,57.8,30.17,SSW,203,2.0,3.0,82,0.00,,OVC038,0.00,VWS V14.01,2013-09-10 09:00:00,
2013-09-10 05:01:00,63.4,57.8,30.17,SW,228,2.0,5.0,82,0.00,,OVC050,0.00,VWS V14.01,2013-09-10 09:01:00,
2013-09-10 05:06:00,63.6,58.0,30.17,SSE,152,5.0,6.0,82,0.00,,OVC050,0.00,VWS V14.01,2013-09-10 09:06:00,
2013-09-10 05:10:00,63.7,58.1,30.17,SW,233,2.0,6.0,82,0.00,,OVC038,0.00,VWS V14.01,2013-09-10 09:10:00,
2013-09-10 05:11:00,63.7,58.1,30.17,West,276,2.0,4.0,82,0.00,,OVC050,0.00,VWS V14.01,2013-09-10 09:11:00,
2013-09-10 05:16:00,63.9,58.3,30.17,South,170,1.0,5.0,82,0.00,,OVC050,0.00,VWS V14.01,2013-09-10 09:16:00,
2013-09-10 05:20:00,64.0,58.1,30.16,SW,236,1.0,5.0,81,0.00,,OVC038,0.00,VWS V14.01,2013-09-10 09:20:00,
2013-09-10 05:21:00,64.0,58.1,30.16,SW,219,0.0,4.0,81,0.00,,OVC050,0.00,VWS V14.01,2013-09-10 09:21:00,
2013-09-10 05:26:00,64.1,58.2,30.16,SSW,194,1.0,5.0,81,0.00,,OVC050,0.00,VWS V14.01,2013-09-10 09:26:00,
2013-09-10 05:30:00,64.2,58.3,30.16,SSW,201,0.0,7.0,81,0.00,,OVC038,0.00,VWS V14.01,2013-09-10 09:30:00,
2013-09-10 05:31:00,64.2,58.3,30.16,SSE,156,2.0,2.0,81,0.00,,OVC050,0.00,VWS V14.01,2013-09-10 09:31:00,
2013-09-10 05:36:00,64.3,58.3,30.16,SE,136,1.0,5.0,81,0.00,,OVC050,0.00,VWS V14.01,2013-09-10 09:36:00,
2013-09-10 05:40:00,64.5,58.5,30.16,SE,125,3.0,7.0,81,0.00,,OVC038,0.00,VWS V14.01,2013-09-10 09:40:00,
2013-09-10 05:41:00,64.5,58.5,30.16,WSW,256,1.0,4.0,81,0.00,,OVC050,0.00,VWS V14.01,2013-09-10 09:41:00,
2013-09-10 05:46:00,64.6,58.7,30.16,South,191,3.0,6.0,81,0.00,,OVC050,0.00,VWS V14.01,2013-09-10 09:46:00,
2013-09-10 05:50:00,64.7,58.7,30.17,SW,214,2.0,6.0,81,0.00,,OVC038,0.00,VWS V14.01,2013-09-10 09:50:00,
2013-09-10 05:51:00,64.7,58.7,30.16,South,172,2.0,4.0,81,0.00,,OVC050,0.00,VWS V14.01,2013-09-10 09:51:00,
2013-09-10 05:56:00,64.7,58.7,30.17,South,187,2.0,4.0,81,0.00,,OVC050,0.00,VWS V14.01,2013-09-10 09:56:00,
2013-09-10 06:00:00,64.7,58.7,30.17,WSW,253,1.0,7.0,81,0.00,,-RA,0.00,VWS V14.01,2013-09-10 10:00:00,
2013-09-10 06:01:00,64.8,58.8,30.17,South,191,2.0,4.0,81,0.00,,OVC037,0.00,VWS V14.01,2013-09-10 10:01:00,
2013-09-10 06:06:00,64.8,58.8,30.17,SSW,200,2.0,5.0,81,0.00,,OVC037,0.00,VWS V14.01,2013-09-10 10:06:00,
2013-09-10 06:10:00,64.9,58.9,30.17,SE,134,4.0,6.0,81,0.00,,-RA,0.00,VWS V14.01,2013-09-10 10:10:00,
2013-09-10 06:11:00,64.8,58.8,30.17,SSE,165,3.0,6.0,81,0.00,,OVC037,0.00,VWS V14.01,2013-09-10 10:11:00,
2013-09-10 06:16:00,64.9,58.9,30.17,SW,218,2.0,6.0,81,0.00,,OVC037,0.00,VWS V14.01,2013-09-10 10:16:00,
2013-09-10 06:20:00,64.9,58.9,30.17,SE,135,2.0,6.0,81,0.00,,OVC038,0.00,VWS V14.01,2013-09-10 10:20:00,
2013-09-10 06:21:00,64.9,58.9,30.17,ESE,118,2.0,4.0,81,0.00,,OVC037,0.00,VWS V14.01,2013-09-10 10:21:00,
2013-09-10 06:26:00,65.0,59.4,30.17,SW,224,4.0,5.0,82,0.00,,OVC037,0.00,VWS V14.01,2013-09-10 10:26:00,
2013-09-10 06:30:00,65.0,59.4,30.17,SSW,194,2.0,6.0,82,0.00,,OVC038,0.00,VWS V14.01,2013-09-10 10:30:00,
2013-09-10 06:31:00,65.0,59.4,30.17,SSE,157,4.0,6.0,82,0.00,,OVC037,0.00,VWS V14.01,2013-09-10 10:31:00,
2013-09-10 06:36:00,65.0,59.4,30.17,SW,220,3.0,7.0,82,0.00,,OVC037,0.00,VWS V14.01,2013-09-10 10:36:00,
2013-09-10 06:40:00,65.1,59.5,30.17,SSE,158,4.0,7.0,82,0.00,,OVC038,0.00,VWS V14.01,2013-09-10 10:40:00,
2013-09-10 06:41:00,65.1,59.5,30.17,WSW,253,1.0,5.0,82,0.00,,OVC037,0.00,VWS V14.01,2013-09-10 10:41:00,
2013-09-10 06:46:00,65.2,59.6,30.17,SW,226,2.0,6.0,82,0.00,,OVC037,0.00,VWS V14.01,2013-09-10 10:46:00,
2013-09-10 06:50:00,65.2,59.6,30.18,SSE,151,2.0,7.0,82,0.00,,OVC038,0.00,VWS V14.01,2013-09-10 10:50:00,
2013-09-10 06:51:00,65.2,59.6,30.18,South,187,2.0,4.0,82,0.00,,OVC037,0.00,VWS V14.01,2013-09-10 10:51:00,
2013-09-10 06:56:00,65.3,59.7,30.18,SSW,204,0.0,5.0,82,0.00,,OVC037,0.00,VWS V14.01,2013-09-10 10:56:00,
2013-09-10 07:00:00,65.3,59.7,30.18,SSW,203,4.0,8.0,82,0.00,,OVC038,0.00,VWS V14.01,2013-09-10 11:00:00,
2013-09-10 07:01:00,65.3,59.7,30.18,South,172,3.0,6.0,82,0.00,,OVC033,0.00,VWS V14.01,2013-09-10 11:01:00,
2013-09-10 07:06:00,65.4,59.8,30.17,WSW,242,4.0,6.0,82,0.00,,OVC033,0.00,VWS V14.01,2013-09-10 11:06:00,
2013-09-10 07:10:00,65.3,59.7,30.17,WSW,237,2.0,7.0,82,0.00,,OVC038,0.00,VWS V14.01,2013-09-10 11:10:00,
2013-09-10 07:11:00,65.3,59.7,30.17,SSW,202,7.0,8.0,82,0.00,,OVC033,0.00,VWS V14.01,2013-09-10 11:11:00,
2013-09-10 07:16:00,65.3,59.7,30.17,WSW,252,3.0,10.0,82,0.00,,OVC033,0.00,VWS V14.01,2013-09-10 11:16:00,
2013-09-10 07:20:00,65.3,59.3,30.17,SSW,201,4.0,10.0,81,0.00,,OVC038,0.00,VWS V14.01,2013-09-10 11:20:00,
2013-09-10 07:21:00,65.3,59.3,30.17,SSW,197,6.0,11.0,81,0.00,,OVC033,0.00,VWS V14.01,2013-09-10 11:21:00,
2013-09-10 07:26:00,65.3,59.3,30.17,West,262,4.0,11.0,81,0.00,,OVC033,0.00,VWS V14.01,2013-09-10 11:26:00,
2013-09-10 07:30:00,65.2,59.2,30.17,SSW,211,2.0,11.0,81,0.00,,OVC038,0.00,VWS V14.01,2013-09-10 11:30:00,
2013-09-10 07:31:00,65.1,59.1,30.17,SSE,147,3.0,7.0,81,0.00,,OVC033,0.00,VWS V14.01,2013-09-10 11:31:00,
2013-09-10 07:36:00,65.0,59.4,30.17,SSE,155,5.0,11.0,82,0.00,,OVC033,0.00,VWS V14.01,2013-09-10 11:36:00,
2013-09-10 07:40:00,64.9,59.6,30.17,WSW,241,4.0,11.0,83,0.00,,OVC038,0.00,VWS V14.01,2013-09-10 11:40:00,
2013-09-10 07:41:00,64.9,59.6,30.17,SW,218,3.0,5.0,83,0.00,,OVC033,0.00,VWS V14.01,2013-09-10 11:41:00,
2013-09-10 07:46:00,64.8,59.9,30.17,WNW,285,4.0,8.0,84,0.00,,OVC033,0.00,VWS V14.01,2013-09-10 11:46:00,
2013-09-10 07:50:00,64.9,60.0,30.18,SW,235,2.0,11.0,84,0.00,,OVC038,0.00,VWS V14.01,2013-09-10 11:50:00,
2013-09-10 07:51:00,64.9,60.0,30.17,SW,221,4.0,9.0,84,0.00,,OVC033,0.00,VWS V14.01,2013-09-10 11:51:00,
2013-09-10 07:56:00,64.9,60.0,30.17,SW,236,1.0,11.0,84,0.00,,OVC033,0.00,VWS V14.01,2013-09-10 11:56:00,
2013-09-10 08:00:00,64.9,60.0,30.17,West,274,1.0,11.0,84,0.00,,OVC038,0.00,VWS V14.01,2013-09-10 12:00:00,
2013-09-10 08:01:00,64.9,60.3,30.17,SW,219,4.0,4.0,85,0.00,,OVC030,0.00,VWS V14.01,2013-09-10 12:01:00,
2013-09-10 08:06:00,64.9,60.3,30.17,SW,235,0.0,6.0,85,0.00,,OVC030,0.00,VWS V14.01,2013-09-10 12:06:00,
2013-09-10 08:10:00,64.9,60.3,30.17,SW,232,8.0,9.0,85,0.00,,OVC038,0.00,VWS V14.01,2013-09-10 12:10:00,
2013-09-10 08:11:00,64.9,60.3,30.18,SW,236,3.0,8.0,85,0.00,,OVC030,0.00,VWS V14.01,2013-09-10 12:11:00,
2013-09-10 08:16:00,64.8,60.2,30.17,WSW,241,6.0,11.0,85,0.00,,OVC030,0.00,VWS V14.01,2013-09-10 12:16:00,
2013-09-10 08:20:00,64.7,60.4,30.17,SSE,160,1.0,11.0,86,0.00,,OVC038,0.00,VWS V14.01,2013-09-10 12:20:00,
2013-09-10 08:21:00,64.7,60.4,30.17,SW,229,1.0,6.0,86,0.00,,-RA,0.00,VWS V14.01,2013-09-10 12:21:00,
2013-09-10 08:26:00,64.6,60.7,30.17,SSE,156,5.0,8.0,87,0.00,,-RA,0.00,VWS V14.01,2013-09-10 12:26:00,
2013-09-10 08:30:00,64.4,60.5,30.17,SSW,197,6.0,9.0,87,0.00,,OVC038,0.00,VWS V14.01,2013-09-10 12:30:00,
2013-09-10 08:31:00,64.3,60.3,30.17,WSW,250,0.0,6.0,87,0.00,,-RA,0.00,VWS V14.01,2013-09-10 12:31:00,
2013-09-10 08:35:00,64.1,60.5,30.18,WSW,238,3.0,7.0,88,0.00,,-RA,0.00,VWS V14.01,2013-09-10 12:35:00,
2013-09-10 08:40:00,64.0,60.4,30.17,WSW,249,5.0,8.0,88,0.00,,-RA,0.00,VWS V14.01,2013-09-10 12:40:00,
2013-09-10 08:41:00,64.1,60.5,30.17,SSW,203,2.0,6.0,88,0.00,,-RA,0.00,VWS V14.01,2013-09-10 12:41:00,
2013-09-10 08:45:00,63.9,60.3,30.17,SSW,209,5.0,6.0,88,0.00,,-RA,0.00,VWS V14.01,2013-09-10 12:45:00,
2013-09-10 08:50:00,63.8,60.2,30.17,West,260,3.0,7.0,88,0.00,,-RA,0.00,VWS V14.01,2013-09-10 12:50:00,
2013-09-10 08:55:00,63.8,60.2,30.17,SSW,199,6.0,8.0,88,0.00,,-RA,0.00,VWS V14.01,2013-09-10 12:55:00,
2013-09-10 09:00:00,63.8,60.5,30.17,SSW,205,1.0,5.0,89,0.00,,OVC030,0.00,VWS V14.01,2013-09-10 13:00:00,
2013-09-10 09:05:00,64.0,60.7,30.17,West,276,0.0,5.0,89,0.00,,OVC030,0.00,VWS V14.01,2013-09-10 13:05:00,
2013-09-10 09:10:00,64.2,60.9,30.17,SE,145,1.0,3.0,89,0.00,,OVC030,0.00,VWS V14.01,2013-09-10 13:10:00,
2013-09-10 09:15:00,64.4,61.1,30.17,ESE,108,1.0,3.0,89,0.00,,OVC030,0.00,VWS V14.01,2013-09-10 13:15:00,
2013-09-10 09:20:00,64.7,61.4,30.18,SW,215,2.0,6.0,89,0.00,,OVC030,0.00,VWS V14.01,2013-09-10 13:20:00,
2013-09-10 09:25:00,64.9,61.6,30.18,SSE,160,2.0,7.0,89,0.00,,OVC030,0.00,VWS V14.01,2013-09-10 13:25:00,
2013-09-10 09:30:00,65.1,61.8,30.18,SSW,205,1.0,3.0,89,0.00,,OVC030,0.00,VWS V14.01,2013-09-10 13:30:00,
2013-09-10 09:35:00,65.4,61.8,30.18,SSE,158,4.0,7.0,88,0.00,,OVC030,0.00,VWS V14.01,2013-09-10 13:35:00,
2013-09-10 09:40:00,65.6,61.6,30.17,SSW,203,4.0,5.0,87,0.00,,OVC030,0.00,VWS V14.01,2013-09-10 13:40:00,
2013-09-10 09:45:00,65.9,61.6,30.17,ESE,114,3.0,8.0,86,0.00,,OVC030,0.00,VWS V14.01,2013-09-10 13:45:00,
2013-09-10 09:50:00,66.2,61.6,30.17,WNW,283,2.0,12.0,85,0.00,,OVC028,0.00,VWS V14.01,2013-09-10 13:50:00,
2013-09-10 09:55:00,66.4,61.8,30.17,SSW,204,2.0,12.0,85,0.00,,OVC028,0.00,VWS V14.01,2013-09-10 13:55:00,
2013-09-10 10:00:00,66.6,61.6,30.17,WSW,255,11.0,13.0,84,0.00,,OVC026,0.00,VWS V14.01,2013-09-10 14:00:00,
2013-09-10 10:05:00,66.8,61.8,30.17,WSW,238,2.0,13.0,84,0.00,,OVC026,0.00,VWS V14.01,2013-09-10 14:05:00,
2013-09-10 10:10:00,66.9,61.9,30.17,South,190,2.0,7.0,84,0.00,,OVC026,0.00,VWS V14.01,2013-09-10 14:10:00,
2013-09-10 10:15:00,67.2,62.2,30.17,SSE,158,3.0,9.0,84,0.00,,OVC026,0.00,VWS V14.01,2013-09-10 14:15:00,
2013-09-10 10:20:00,67.4,62.1,30.17,WSW,243,4.0,5.0,83,0.00,,OVC026,0.00,VWS V14.01,2013-09-10 14:20:00,
2013-09-10 10:25:00,67.6,62.3,30.17,SW,231,9.0,11.0,83,0.00,,OVC026,0.00,VWS V14.01,2013-09-10 14:25:00,
2013-09-10 10:30:00,67.9,62.2,30.17,SW,228,8.0,12.0,82,0.00,,OVC026,0.00,VWS V14.01,2013-09-10 14:30:00,
2013-09-10 10:35:00,68.3,62.9,30.16,South,177,3.0,12.0,83,0.00,,OVC026,0.00,VWS V14.01,2013-09-10 14:35:00,
2013-09-10 10:40:00,68.4,62.7,30.16,West,272,4.0,8.0,82,0.00,,OVC026,0.00,VWS V14.01,2013-09-10 14:40:00,
2013-09-10 10:45:00,68.6,62.9,30.16,SW,232,4.0,10.0,82,0.00,,OVC026,0.00,VWS V14.01,2013-09-10 14:45:00,
2013-09-10 10:50:00,68.8,62.7,30.16,NW,310,2.0,9.0,81,0.00,,OVC026,0.00,VWS V14.01,2013-09-10 14:50:00,
2013-09-10 10:55:00,68.8,62.4,30.16,WNW,291,4.0,13.0,80,0.00,,OVC026,0.00,VWS V14.01,2013-09-10 14:55:00,
2013-09-10 11:00:00,68.9,62.5,30.16,SSE,156,2.0,10.0,80,0.00,,OVC022,0.00,VWS V14.01,2013-09-10 15:00:00,
2013-09-10 11:05:00,68.9,62.5,30.17,SSW,205,3.0,17.0,80,0.00,,OVC022,0.00,VWS V14.01,2013-09-10 15:05:00,
2013-09-10 11:10:00,69.0,62.9,30.17,South,188,7.0,12.0,81,0.00,,OVC022,0.00,VWS V14.01,2013-09-10 15:10:00,
2013-09-10 11:15:00,69.1,63.0,30.17,West,266,4.0,12.0,81,0.00,,OVC022,0.00,VWS V14.01,2013-09-10 15:15:00,
2013-09-10 11:20:00,69.1,62.7,30.17,West,270,2.0,6.0,80,0.00,,OVC022,0.00,VWS V14.01,2013-09-10 15:20:00,
2013-09-10 11:25:00,69.1,62.7,30.17,WSW,242,3.0,14.0,80,0.00,,OVC022,0.00,VWS V14.01,2013-09-10 15:25:00,
2013-09-10 11:30:00,69.2,62.1,30.17,WSW,243,10.0,15.0,78,0.00,,OVC022,0.00,VWS V14.01,2013-09-10 15:30:00,
2013-09-10 11:35:00,69.4,62.2,30.17,WSW,239,11.0,17.0,78,0.00,,OVC022,0.00,VWS V14.01,2013-09-10 15:35:00,
2013-09-10 11:40:00,69.5,62.3,30.17,SW,226,11.0,11.0,78,0.00,,OVC022,0.00,VWS V14.01,2013-09-10 15:40:00,
2013-09-10 11:45:00,69.7,62.2,30.16,WNW,300,7.0,15.0,77,0.00,,OVC022,0.00,VWS V14.01,2013-09-10 15:45:00,
2013-09-10 11:50:00,69.8,62.3,30.16,SW,225,6.0,11.0,77,0.00,,OVC022,0.00,VWS V14.01,2013-09-10 15:50:00,
2013-09-10 11:55:00,69.9,62.4,30.16,West,266,9.0,16.0,77,0.00,,OVC022,0.00,VWS V14.01,2013-09-10 15:55:00,
2013-09-10 12:00:00,70.0,62.5,30.16,SSW,204,5.0,15.0,77,0.00,,OVC024,0.00,VWS V14.01,2013-09-10 16:00:00,
2013-09-10 12:05:00,70.1,62.9,30.16,SSE,150,4.0,15.0,78,0.00,,OVC024,0.00,VWS V14.01,2013-09-10 16:05:00,
2013-09-10 12:10:00,70.4,63.2,30.16,WSW,248,7.0,9.0,78,0.00,,OVC024,0.00,VWS V14.01,2013-09-10 16:10:00,
2013-09-10 12:15:00,70.7,63.5,30.15,SSE,158,3.0,11.0,78,0.00,,OVC024,0.00,VWS V14.01,2013-09-10 16:15:00,
2013-09-10 12:20:00,70.7,63.5,30.15,SW,224,7.0,12.0,78,0.00,,OVC024,0.00,VWS V14.01,2013-09-10 16:20:00,
2013-09-10 12:25:00,70.7,63.5,30.15,SSW,212,7.0,12.0,78,0.00,,OVC024,0.00,VWS V14.01,2013-09-10 16:25:00,
2013-09-10 12:30:00,70.7,63.5,30.14,SW,233,3.0,10.0,78,0.00,,OVC024,0.00,VWS V14.01,2013-09-10 16:30:00,
2013-09-10 12:35:00,70.5,63.7,30.14,WNW,287,3.0,15.0,79,0.00,,OVC024,0.00,VWS V14.01,2013-09-10 16:35:00,
2013-09-10 12:40:00,70.4,63.6,30.14,SSW,203,10.0,10.0,79,0.00,,OVC024,0.00,VWS V14.01,2013-09-10 16:40:00,
2013-09-10 12:45:00,70.7,64.2,30.14,WSW,255,3.0,11.0,80,0.00,,OVC024,0.00,VWS V14.01,2013-09-10 16:45:00,
2013-09-10 12:50:00,71.0,64.2,30.14,WNW,297,1.0,6.0,79,0.00,,OVC024,0.00,VWS V14.01,2013-09-10 16:50:00,
2013-09-10 12:55:00,71.0,64.2,30.13,South,181,7.0,18.0,79,0.00,,OVC024,0.00,VWS V14.01,2013-09-10 16:55:00,
2013-09-10 13:00:00,71.2,64.4,30.13,SE,132,6.0,10.0,79,0.00,,OVC020,0.00,VWS V14.01,2013-09-10 17:00:00,
2013-09-10 13:05:00,71.0,64.2,30.13,WSW,257,6.0,13.0,79,0.00,,OVC020,0.00,VWS V14.01,2013-09-10 17:05:00,
2013-09-10 13:10:00,70.9,64.4,30.12,West,265,9.0,12.0,80,0.00,,OVC020,0.00,VWS V14.01,2013-09-10 17:10:00,
2013-09-10 13:15:00,71.0,64.5,30.11,SW,219,7.0,16.0,80,0.00,,OVC020,0.00,VWS V14.01,2013-09-10 17:15:00,
2013-09-10 13:20:00,71.6,65.1,30.10,SSW,208,5.0,7.0,80,0.00,,OVC020,0.00,VWS V14.01,2013-09-10 17:20:00,
2013-09-10 13:25:00,72.0,64.8,30.09,South,179,6.0,13.0,78,0.00,,OVC020,0.00,VWS V14.01,2013-09-10 17:25:00,
2013-09-10 13:30:00,72.2,65.3,30.08,NW,309,8.0,11.0,79,0.00,,OVC020,0.00,VWS V14.01,2013-09-10 17:30:00,
2013-09-10 13:35:00,72.1,64.9,30.08,WSW,256,5.0,20.0,78,0.00,,OVC020,0.00,VWS V14.01,2013-09-10 17:35:00,
2013-09-10 13:40:00,72.3,65.4,30.08,SW,231,14.0,14.0,79,0.00,,OVC020,0.00,VWS V14.01,2013-09-10 17:40:00,
2013-09-10 13:45:00,72.3,65.4,30.07,SSW,211,6.0,14.0,79,0.00,,OVC020,0.00,VWS V14.01,2013-09-10 17:45:00,
2013-09-10 13:50:00,72.1,65.2,30.08,WSW,242,5.0,6.0,79,0.00,,OVC020,0.00,VWS V14.01,2013-09-10 17:50:00,
2013-09-10 13:55:00,71.8,65.3,30.09,WSW,238,11.0,16.0,80,0.00,,OVC020,0.00,VWS V14.01,2013-09-10 17:55:00,
2013-09-10 14:00:00,71.4,64.9,30.09,West,276,3.0,14.0,80,0.00,,BKN023,0.00,VWS V14.01,2013-09-10 18:00:00,
2013-09-10 14:05:00,71.3,65.2,30.08,SSE,166,5.0,15.0,81,0.00,,BKN023,0.00,VWS V14.01,2013-09-10 18:05:00,
2013-09-10 14:10:00,71.1,65.3,30.09,WSW,250,4.0,8.0,82,0.00,,BKN023,0.00,VWS V14.01,2013-09-10 18:10:00,
2013-09-10 14:15:00,71.0,65.2,30.08,SSE,159,7.0,14.0,82,0.00,,BKN023,0.00,VWS V14.01,2013-09-10 18:15:00,
2013-09-10 14:20:00,70.9,65.1,30.08,West,270,5.0,11.0,82,0.00,,BKN023,0.00,VWS V14.01,2013-09-10 18:20:00,
2013-09-10 14:25:00,70.9,65.1,30.08,SW,214,0.0,12.0,82,0.00,,BKN023,0.00,VWS V14.01,2013-09-10 18:25:00,
2013-09-10 14:30:00,70.9,65.5,30.08,SW,218,9.0,15.0,83,0.00,,BKN023,0.00,VWS V14.01,2013-09-10 18:30:00,
2013-09-10 14:35:00,70.9,65.5,30.08,WSW,255,1.0,15.0,83,0.00,,BKN023,0.00,VWS V14.01,2013-09-10 18:35:00,
2013-09-10 14:40:00,70.9,65.5,30.08,South,191,4.0,4.0,83,0.00,,BKN023,0.00,VWS V14.01,2013-09-10 18:40:00,
2013-09-10 14:45:00,71.0,65.6,30.08,SW,219,6.0,13.0,83,0.00,,BKN023,0.00,VWS V14.01,2013-09-10 18:45:00,
2013-09-10 14:50:00,71.2,65.8,30.08,SSW,200,9.0,10.0,83,0.00,,BKN023,0.00,VWS V14.01,2013-09-10 18:50:00,
2013-09-10 14:55:00,71.6,65.8,30.09,WSW,242,9.0,15.0,82,0.00,,BKN023,0.00,VWS V14.01,2013-09-10 18:55:00,
2013-09-10 15:00:00,71.8,66.0,30.09,WSW,239,11.0,11.0,82,0.00,,OVC016,0.00,VWS V14.01,2013-09-10 19:00:00,
2013-09-10 15:05:00,71.8,66.0,30.09,WSW,240,8.0,15.0,82,0.00,,OVC016,0.00,VWS V14.01,2013-09-10 19:05:00,
2013-09-10 15:10:00,71.6,66.2,30.09,South,177,9.0,11.0,83,0.00,,OVC016,0.00,VWS V14.01,2013-09-10 19:10:00,
2013-09-10 15:15:00,71.5,66.1,30.09,South,173,7.0,16.0,83,0.00,,OVC016,0.00,VWS V14.01,2013-09-10 19:15:00,
2013-09-10 15:20:00,71.4,66.0,30.09,WSW,248,8.0,14.0,83,0.00,,OVC016,0.00,VWS V14.01,2013-09-10 19:20:00,
2013-09-10 15:25:00,71.2,66.1,30.09,West,267,1.0,14.0,84,0.00,,OVC016,0.00,VWS V14.01,2013-09-10 19:25:00,
2013-09-10 15:30:00,71.2,66.1,30.10,West,281,8.0,9.0,84,0.00,,OVC016,0.00,VWS V14.01,2013-09-10 19:30:00,
2013-09-10 15:35:00,71.1,66.0,30.10,SSE,147,6.0,12.0,84,0.00,,OVC016,0.00,VWS V14.01,2013-09-10 19:35:00,
2013-09-10 15:40:00,71.0,66.3,30.10,SW,229,7.0,10.0,85,0.00,,OVC016,0.00,VWS V14.01,2013-09-10 19:40:00,
2013-09-10 15:45:00,71.0,66.3,30.10,SW,226,3.0,13.0,85,0.00,,OVC016,0.00,VWS V14.01,2013-09-10 19:45:00,
2013-09-10 15:50:00,71.0,66.3,30.10,SSW,205,4.0,7.0,85,0.00,,OVC016,0.00,VWS V14.01,2013-09-10 19:50:00,
2013-09-10 15:55:00,71.1,66.4,30.10,West,266,5.0,12.0,85,0.00,,OVC016,0.00,VWS V14.01,2013-09-10 19:55:00,
2013-09-10 16:00:00,71.1,66.4,30.10,SW,229,6.0,7.0,85,0.00,,OVC016,0.00,VWS V14.01,2013-09-10 20:00:00,
2013-09-10 16:05:00,71.1,66.7,30.10,West,273,1.0,12.0,86,0.00,,OVC016,0.00,VWS V14.01,2013-09-10 20:05:00,
2013-09-10 16:10:00,71.2,66.8,30.10,South,174,4.0,5.0,86,0.00,,OVC016,0.00,VWS V14.01,2013-09-10 20:10:00,
2013-09-10 16:15:00,71.2,66.8,30.10,SW,234,8.0,8.0,86,0.00,,OVC016,0.00,VWS V14.01,2013-09-10 20:15:00,
2013-09-10 16:20:00,71.2,66.8,30.09,SSW,205,5.0,8.0,86,0.00,,OVC014,0.00,VWS V14.01,2013-09-10 20:20:00,
2013-09-10 16:25:00,71.3,66.9,30.09,SSW,194,2.0,9.0,86,0.00,,OVC014,0.00,VWS V14.01,2013-09-10 20:25:00,
2013-09-10 16:30:00,71.3,66.9,30.09,SW,236,9.0,9.0,86,0.00,,OVC014,0.00,VWS V14.01,2013-09-10 20:30:00,
2013-09-10 16:35:00,71.3,66.9,30.09,SSW,197,5.0,11.0,86,0.00,,OVC014,0.00,VWS V14.01,2013-09-10 20:35:00,
2013-09-10 16:40:00,71.3,66.9,30.09,SW,226,4.0,7.0,86,0.00,,OVC014,0.00,VWS V14.01,2013-09-10 20:40:00,
2013-09-10 16:45:00,71.3,66.9,30.09,SW,214,3.0,10.0,86,0.00,,OVC014,0.00,VWS V14.01,2013-09-10 20:45:00,
2013-09-10 16:50:00,71.3,67.2,30.09,West,271,8.0,8.0,87,0.00,,OVC014,0.00,VWS V14.01,2013-09-10 20:50:00,
2013-09-10 16:55:00,71.4,67.3,30.09,SW,224,6.0,8.0,87,0.00,,OVC014,0.00,VWS V14.01,2013-09-10 20:55:00,
2013-09-10 17:00:00,71.5,67.4,30.09,WSW,239,4.0,6.0,87,0.00,,OVC016,0.00,VWS V14.01,2013-09-10 21:00:00,
2013-09-10 17:05:00,71.7,67.3,30.09,West,261,3.0,9.0,86,0.00,,OVC016,0.00,VWS V14.01,2013-09-10 21:05:00,
2013-09-10 17:10:00,71.7,67.3,30.09,WSW,250,5.0,5.0,86,0.00,,OVC016,0.00,VWS V14.01,2013-09-10 21:10:00,
2013-09-10 17:15:00,71.7,67.3,30.09,WNW,303,4.0,10.0,86,0.00,,OVC016,0.00,VWS V14.01,2013-09-10 21:15:00,
2013-09-10 17:20:00,71.6,67.2,30.09,SSW,213,4.0,4.0,86,0.00,,OVC016,0.00,VWS V14.01,2013-09-10 21:20:00,
2013-09-10 17:25:00,71.6,67.5,30.09,SW,224,3.0,14.0,87,0.00,,OVC016,0.00,VWS V14.01,2013-09-10 21:25:00,
2013-09-10 17:30:00,71.6,67.2,30.09,SW,229,5.0,6.0,86,0.00,,OVC016,0.00,VWS V14.01,2013-09-10 21:30:00,
2013-09-10 17:35:00,71.4,67.3,30.09,South,191,2.0,10.0,87,0.00,,OVC016,0.00,VWS V14.01,2013-09-10 21:35:00,
2013-09-10 17:40:00,71.3,67.2,30.10,SW,218,8.0,10.0,87,0.00,,OVC016,0.00,VWS V14.01,2013-09-10 21:40:00,
2013-09-10 17:45:00,71.2,67.1,30.09,West,266,6.0,10.0,87,0.00,,OVC016,0.00,VWS V14.01,2013-09-10 21:45:00,
2013-09-10 17:50:00,71.0,66.9,30.09,West,277,5.0,8.0,87,0.00,,OVC016,0.00,VWS V14.01,2013-09-10 21:50:00,
2013-09-10 17:55:00,71.0,66.9,30.09,WSW,255,4.0,12.0,87,0.00,,OVC016,0.00,VWS V14.01,2013-09-10 21:55:00,
2013-09-10 18:00:00,71.0,67.3,30.09,West,271,6.0,9.0,88,0.00,,OVC016,0.00,VWS V14.01,2013-09-10 22:00:00,
2013-09-10 18:05:00,71.0,67.3,30.09,SW,225,5.0,11.0,88,0.00,,OVC016,0.00,VWS V14.01,2013-09-10 22:05:00,
2013-09-10 18:10:00,71.0,67.3,30.09,SW,218,1.0,2.0,88,0.00,,OVC016,0.00,VWS V14.01,2013-09-10 22:10:00,
2013-09-10 18:15:00,71.0,67.3,30.09,NW,309,5.0,11.0,88,0.00,,OVC016,0.00,VWS V14.01,2013-09-10 22:15:00,
2013-09-10 18:20:00,71.1,67.4,30.09,WNW,289,5.0,5.0,88,0.00,,OVC016,0.00,VWS V14.01,2013-09-10 22:20:00,
2013-09-10 18:25:00,71.0,67.3,30.09,SSE,160,2.0,13.0,88,0.00,,OVC016,0.00,VWS V14.01,2013-09-10 22:25:00,
2013-09-10 18:30:00,70.9,67.2,30.09,ESE,113,9.0,10.0,88,0.00,,OVC016,0.00,VWS V14.01,2013-09-10 22:30:00,
2013-09-10 18:35:00,70.7,67.0,30.09,South,185,6.0,12.0,88,0.00,,OVC016,0.00,VWS V14.01,2013-09-10 22:35:00,
2013-09-10 18:40:00,70.5,66.8,30.09,SE,126,3.0,4.0,88,0.00,,OVC016,0.00,VWS V14.01,2013-09-10 22:40:00,
2013-09-10 18:45:00,70.3,66.9,30.09,SSW,212,3.0,11.0,89,0.00,,OVC016,0.00,VWS V14.01,2013-09-10 22:45:00,
2013-09-10 18:50:00,70.2,66.8,30.09,NW,304,1.0,4.0,89,0.00,,OVC016,0.00,VWS V14.01,2013-09-10 22:50:00,
2013-09-10 18:55:00,70.1,66.7,30.09,SW,231,12.0,13.0,89,0.00,,OVC016,0.00,VWS V14.01,2013-09-10 22:55:00,
2013-09-10 19:00:00,70.0,66.6,30.08,SSW,192,2.0,3.0,89,0.00,,BKN018,0.00,VWS V14.01,2013-09-10 23:00:00,
2013-09-10 19:05:00,69.9,66.5,30.09,SSW,212,3.0,10.0,89,0.00,,BKN018,0.00,VWS V14.01,2013-09-10 23:05:00,
2013-09-10 19:10:00,69.8,66.7,30.09,South,169,3.0,3.0,90,0.00,,BKN018,0.00,VWS V14.01,2013-09-10 23:10:00,
2013-09-10 19:15:00,69.7,66.6,30.09,SW,225,4.0,11.0,90,0.00,,BKN018,0.00,VWS V14.01,2013-09-10 23:15:00,
2013-09-10 19:20:00,69.6,66.5,30.09,SW,228,6.0,6.0,90,0.00,,BKN018,0.00,VWS V14.01,2013-09-10 23:20:00,
2013-09-10 19:25:00,69.5,66.4,30.09,SSW,204,9.0,9.0,90,0.00,,BKN018,0.00,VWS V14.01,2013-09-10 23:25:00,
2013-09-10 19:30:00,69.5,66.8,30.09,South,173,3.0,5.0,91,0.00,,BKN013,0.00,VWS V14.01,2013-09-10 23:30:00,
2013-09-10 19:35:00,69.4,66.7,30.09,SSE,165,8.0,11.0,91,0.00,,BKN013,0.00,VWS V14.01,2013-09-10 23:35:00,
2013-09-10 19:40:00,69.2,66.5,30.10,WSW,239,4.0,5.0,91,0.00,,BKN013,0.00,VWS V14.01,2013-09-10 23:40:00,
2013-09-10 19:45:00,69.1,66.4,30.10,SSW,195,5.0,11.0,91,0.00,,BKN013,0.00,VWS V14.01,2013-09-10 23:45:00,
2013-09-10 19:50:00,69.0,66.3,30.09,SSE,148,3.0,3.0,91,0.00,,BKN013,0.00,VWS V14.01,2013-09-10 23:50:00,
2013-09-10 19:55:00,68.9,66.2,30.10,SW,214,5.0,6.0,91,0.00,,BKN013,0.00,VWS V14.01,2013-09-10 23:55:00,
2013-09-10 20:00:00,68.8,66.1,30.10,South,186,4.0,5.0,91,0.00,,BKN013,0.00,VWS V14.01,2013-09-11 00:00:00,
2013-09-10 20:05:00,68.8,66.4,30.10,SSW,210,6.0,9.0,92,0.00,,BKN011,0.00,VWS V14.01,2013-09-11 00:05:00,
2013-09-10 20:10:00,68.8,66.4,30.10,ESE,122,4.0,7.0,92,0.00,,BKN011,0.00,VWS V14.01,2013-09-11 00:10:00,
2013-09-10 20:15:00,68.8,66.4,30.10,SW,221,4.0,10.0,92,0.00,,BKN011,0.00,VWS V14.01,2013-09-11 00:15:00,
2013-09-10 20:20:00,68.8,66.4,30.10,SE,124,1.0,1.0,92,0.00,,BKN011,0.00,VWS V14.01,2013-09-11 00:20:00,
2013-09-10 20:25:00,68.8,66.4,30.10,WSW,255,3.0,9.0,92,0.00,,BKN011,0.00,VWS V14.01,2013-09-11 00:25:00,
2013-09-10 20:30:00,68.8,66.4,30.10,South,174,4.0,8.0,92,0.00,,BKN011,0.00,VWS V14.01,2013-09-11 00:30:00,
2013-09-10 20:35:00,68.8,66.4,30.10,SE,143,4.0,8.0,92,0.00,,BKN011,0.00,VWS V14.01,2013-09-11 00:35:00,
2013-09-10 20:40:00,68.8,66.4,30.10,SSW,196,5.0,6.0,92,0.00,,BKN011,0.00,VWS V14.01,2013-09-11 00:40:00,
2013-09-10 20:45:00,68.8,66.4,30.10,SSW,195,6.0,8.0,92,0.00,,BKN011,0.00,VWS V14.01,2013-09-11 00:45:00,
2013-09-10 20:50:00,68.9,66.5,30.10,South,181,5.0,5.0,92,0.00,,BKN011,0.00,VWS V14.01,2013-09-11 00:50:00,
2013-09-10 20:55:00,69.0,66.6,30.10,SSW,203,6.0,11.0,92,0.00,,BKN011,0.00,VWS V14.01,2013-09-11 00:55:00,
2013-09-10 21:00:00,69.1,66.7,30.10,SSW,207,7.0,8.0,92,0.00,,OVC011,0.00,VWS V14.01,2013-09-11 01:00:00,
2013-09-10 21:05:00,69.2,66.8,30.10,SSW,204,3.0,9.0,92,0.00,,OVC011,0.00,VWS V14.01,2013-09-11 01:05:00,
2013-09-10 21:10:00,69.3,66.9,30.10,SSW,198,2.0,4.0,92,0.00,,OVC011,0.00,VWS V14.01,2013-09-11 01:10:00,
2013-09-10 21:15:00,69.3,66.9,30.10,SW,232,4.0,8.0,92,0.00,,OVC011,0.00,VWS V14.01,2013-09-11 01:15:00,
2013-09-10 21:20:00,69.4,67.0,30.10,SSW,202,2.0,5.0,92,0.00,,OVC011,0.00,VWS V14.01,2013-09-11 01:20:00,
2013-09-10 21:25:00,69.4,67.0,30.10,WSW,249,4.0,8.0,92,0.00,,OVC011,0.00,VWS V14.01,2013-09-11 01:25:00,
2013-09-10 21:30:00,69.5,67.1,30.10,West,262,3.0,8.0,92,0.00,,OVC011,0.00,VWS V14.01,2013-09-11 01:30:00,
2013-09-10 21:35:00,69.6,67.2,30.10,SSE,160,1.0,10.0,92,0.00,,OVC009,0.00,VWS V14.01,2013-09-11 01:35:00,
2013-09-10 21:40:00,69.6,67.2,30.10,West,262,2.0,2.0,92,0.00,,OVC009,0.00,VWS V14.01,2013-09-11 01:40:00,
2013-09-10 21:45:00,69.7,67.3,30.10,SW,214,1.0,7.0,92,0.00,,OVC009,0.00,VWS V14.01,2013-09-11 01:45:00,
2013-09-10 21:50:00,69.7,67.3,30.10,West,261,0.0,2.0,92,0.00,,OVC009,0.00,VWS V14.01,2013-09-11 01:50:00,
2013-09-10 21:55:00,69.7,67.3,30.10,SW,219,6.0,9.0,92,0.00,,OVC009,0.00,VWS V14.01,2013-09-11 01:55:00,
2013-09-10 22:00:00,69.8,67.4,30.10,WNW,291,5.0,5.0,92,0.00,,OVC009,0.00,VWS V14.01,2013-09-11 02:00:00,
2013-09-10 22:05:00,69.8,67.4,30.10,SSW,201,4.0,12.0,92,0.00,,OVC009,0.00,VWS V14.01,2013-09-11 02:05:00,
2013-09-10 22:10:00,69.8,67.4,30.10,West,264,2.0,2.0,92,0.00,,OVC009,0.00,VWS V14.01,2013-09-11 02:10:00,
2013-09-10 22:15:00,69.8,67.4,30.10,SSW,212,3.0,10.0,92,0.00,,OVC009,0.00,VWS V14.01,2013-09-11 02:15:00,
2013-09-10 22:20:00,69.8,67.7,30.10,SSW,198,3.0,4.0,93,0.00,,OVC009,0.00,VWS V14.01,2013-09-11 02:20:00,
2013-09-10 22:25:00,69.8,67.7,30.11,South,179,6.0,12.0,93,0.00,,OVC009,0.00,VWS V14.01,2013-09-11 02:25:00,
2013-09-10 22:30:00,69.8,67.7,30.11,WSW,245,2.0,2.0,93,0.00,,OVC009,0.00,VWS V14.01,2013-09-11 02:30:00,
2013-09-10 22:35:00,69.8,67.7,30.11,SSW,194,5.0,9.0,93,0.00,,OVC009,0.00,VWS V14.01,2013-09-11 02:35:00,
2013-09-10 22:40:00,69.7,67.6,30.11,WNW,289,1.0,1.0,93,0.00,,OVC009,0.00,VWS V14.01,2013-09-11 02:40:00,
2013-09-10 22:45:00,69.7,67.6,30.11,SSE,165,3.0,8.0,93,0.00,,OVC009,0.00,VWS V14.01,2013-09-11 02:45:00,
2013-09-10 22:49:00,69.8,67.7,30.11,SSW,197,4.0,7.0,93,0.00,,OVC009,0.00,VWS V14.01,2013-09-11 02:49:00,
2013-09-10 22:50:00,69.7,67.6,30.11,SW,218,7.0,8.0,93,0.00,,OVC038,0.00,VWS V14.01,2013-09-11 02:50:00,
2013-09-10 22:54:00,69.8,67.7,30.11,South,188,2.0,7.0,93,0.00,,OVC009,0.00,VWS V14.01,2013-09-11 02:54:00,
2013-09-10 22:59:00,69.9,68.1,30.11,West,268,6.0,6.0,94,0.00,,OVC009,0.00,VWS V14.01,2013-09-11 02:59:00,
2013-09-10 23:00:00,69.9,68.1,30.11,West,271,6.0,8.0,94,0.00,,OVC038,0.00,VWS V14.01,2013-09-11 03:00:00,
2013-09-10 23:04:00,70.1,68.3,30.11,SSW,203,0.0,8.0,94,0.00,,OVC007,0.00,VWS V14.01,2013-09-11 03:04:00,
2013-09-10 23:09:00,70.2,68.4,30.11,West,274,5.0,8.0,94,0.00,,OVC007,0.00,VWS V14.01,2013-09-11 03:09:00,
2013-09-10 23:10:00,70.2,68.4,30.11,WSW,250,5.0,8.0,94,0.00,,OVC038,0.00,VWS V14.01,2013-09-11 03:10:00,
2013-09-10 23:14:00,70.3,68.2,30.11,SW,217,1.0,8.0,93,0.00,,OVC007,0.00,VWS V14.01,2013-09-11 03:14:00,
2013-09-10 23:19:00,70.4,68.3,30.11,SW,232,1.0,8.0,93,0.00,,OVC007,0.00,VWS V14.01,2013-09-11 03:19:00,
2013-09-10 23:20:00,70.4,68.3,30.11,SW,232,1.0,8.0,93,0.00,,OVC038,0.00,VWS V14.01,2013-09-11 03:20:00,
2013-09-10 23:24:00,70.4,68.3,30.11,SW,236,2.0,7.0,93,0.00,,OVC007,0.00,VWS V14.01,2013-09-11 03:24:00,
2013-09-10 23:29:00,70.5,68.4,30.11,South,183,5.0,7.0,93,0.00,,OVC007,0.00,VWS V14.01,2013-09-11 03:29:00,
2013-09-10 23:30:00,70.5,68.4,30.11,South,183,5.0,7.0,93,0.00,,OVC038,0.00,VWS V14.01,2013-09-11 03:30:00,
2013-09-10 23:34:00,70.4,68.6,30.11,WNW,300,1.0,9.0,94,0.00,,OVC007,0.00,VWS V14.01,2013-09-11 03:34:00,
2013-09-10 23:39:00,70.5,68.7,30.11,West,269,6.0,9.0,94,0.00,,OVC007,0.00,VWS V14.01,2013-09-11 03:39:00,
2013-09-10 23:40:00,70.5,68.7,30.11,West,276,5.0,9.0,94,0.00,,OVC038,0.00,VWS V14.01,2013-09-11 03:40:00,
2013-09-10 23:44:00,70.5,68.7,30.11,SSE,167,7.0,9.0,94,0.00,,OVC007,0.00,VWS V14.01,2013-09-11 03:44:00,
2013-09-10 23:49:00,70.5,68.7,30.11,South,169,3.0,9.0,94,0.00,,OVC007,0.00,VWS V14.01,2013-09-11 03:49:00,
2013-09-10 23:50:00,70.5,68.7,30.11,WSW,245,2.0,9.0,94,0.00,,OVC038,0.00,VWS V14.01,2013-09-11 03:50:00,
2013-09-10 23:54:00,70.5,68.7,30.11,SW,236,7.0,9.0,94,0.00,,OVC007,0.00,VWS V14.01,2013-09-11 03:54:00,
2013-09-10 23:59:00,70.5,68.7,30.11,WNW,294,7.0,9.0,94,0.00,,OVC007,0.00,VWS V14.01,2013-09-11 03:59:00,